This is the latest recevied weather packets stored in our database for station/object KB9ZI. If no packets are shown the sender has not sent any weather packets the latest 10 day(s).
| Time | Temp. | Humidity | Pressure | Rain* | Wind** | Luminosity | Snow |
|---|---|---|---|---|---|---|---|
| 1778186935 | 14.44° C | 34% | 1010.2 hPa | 0 mm | - | - | - |
| 1778186711 | 13.89° C | 36% | 1010.2 hPa | 0 mm | - | - | - |
| 1778186644 | 13.89° C | 37% | 1010.1 hPa | 0 mm | - | - | - |
| 1778186456 | 13.89° C | 32% | 1010.2 hPa | 0 mm | - | - | - |
| 1778186367 | 13.89° C | 36% | 1010.2 hPa | 0 mm | - | - | - |
| 1778186333 | 13.33° C | 36% | 1010.3 hPa | 0 mm | - | - | - |
| 1778186093 | 13.33° C | 32% | 1010.3 hPa | 0 mm | - | - | - |
| 1778185972 | 13.89° C | 32% | 1010.4 hPa | 0 mm | - | - | - |
| 1778185852 | 13.89° C | 32% | 1010.3 hPa | 0 mm | - | - | - |
| 1778185713 | 13.89° C | 35% | 1010.4 hPa | 0 mm | - | - | - |
| 1778185602 | 14.44° C | 36% | 1010.4 hPa | 0 mm | - | - | - |
| 1778185473 | 13.89° C | 36% | 1010.4 hPa | 0 mm | - | - | - |
| 1778185337 | 13.89° C | 34% | 1010.4 hPa | 0 mm | - | - | - |
| 1778185274 | 13.89° C | 40% | 1010.5 hPa | 0 mm | - | - | - |
| 1778185095 | 13.33° C | 36% | 1010.4 hPa | 0 mm | - | - | - |
| 1778184975 | 13.89° C | 36% | 1010.4 hPa | 0 mm | - | - | - |
| 1778184856 | 13.33° C | 40% | 1010.5 hPa | 0 mm | - | - | - |
| 1778184733 | 12.78° C | 42% | 1010.5 hPa | 0 mm | - | - | - |
| 1778184614 | 12.78° C | 37% | 1010.5 hPa | 0 mm | - | - | - |
| 1778184494 | 13.33° C | 51% | 1010.5 hPa | 0 mm | - | - | - |
| 1778184372 | 13.33° C | 47% | 1010.5 hPa | 0 mm | - | - | - |
| 1778184313 | 13.33° C | 41% | 1010.5 hPa | 0 mm | - | - | - |
| 1778184132 | 13.33° C | 39% | 1010.6 hPa | 0 mm | - | - | - |
| 1778184009 | 13.89° C | 42% | 1010.7 hPa | 0 mm | - | - | - |
| 1778183884 | 13.89° C | 41% | 1010.6 hPa | 0 mm | - | - | - |
* Rain latest hour (hover to see other rain measurements)
** Current wind speed in m/s (hover to see current wind gust speed)